This is the latest recevied weather packets stored in our database for station/object KB0RPJ. If no packets are shown the sender has not sent any weather packets the latest 10 day(s).
| Time | Temp. | Humidity | Pressure | Rain* | Wind** | Luminosity | Snow |
|---|---|---|---|---|---|---|---|
| 1778177108 | 18.33° C | 44% | 1012.7 hPa | 0 mm | - | 1072 W/m² | - |
| 1778176805 | 17.78° C | 48% | 1012.7 hPa | 0 mm | - | 1005 W/m² | - |
| 1778176504 | 17.78° C | 46% | 1012.9 hPa | 0 mm | - | 982 W/m² | - |
| 1778176205 | 17.78° C | 45% | 1012.8 hPa | 0 mm | - | 983 W/m² | - |
| 1778175906 | 17.78° C | 46% | 1013 hPa | 0 mm | - | 490 W/m² | - |
| 1778175606 | 17.78° C | 47% | 1013.1 hPa | 0 mm | - | 991 W/m² | - |
| 1778175305 | 17.78° C | 45% | 1013.2 hPa | 0 mm | - | 995 W/m² | - |
| 1778175005 | 17.78° C | 46% | 1013.2 hPa | 0 mm | - | 947 W/m² | - |
| 1778174712 | 17.78° C | 47% | 1013.3 hPa | 0 mm | - | 935 W/m² | - |
| 1778174405 | 17.78° C | 46% | 1013.4 hPa | 0 mm | - | 949 W/m² | - |
| 1778174106 | 17.78° C | 47% | 1013.5 hPa | 0 mm | - | 970 W/m² | - |
| 1778173805 | 17.78° C | 47% | 1013.5 hPa | 0 mm | - | 979 W/m² | - |
| 1778173515 | 17.78° C | 47% | 1013.5 hPa | 0 mm | - | 948 W/m² | - |
| 1778173204 | 17.22° C | 48% | 1013.7 hPa | 0 mm | - | 913 W/m² | - |
| 1778172905 | 17.22° C | 48% | 1013.9 hPa | 0 mm | - | 897 W/m² | - |
| 1778172608 | 17.22° C | 47% | 1013.8 hPa | 0 mm | - | 883 W/m² | - |
| 1778172304 | 17.22° C | 47% | 1013.9 hPa | 0 mm | - | 874 W/m² | - |
| 1778172005 | 17.22° C | 48% | 1013.9 hPa | 0 mm | - | 879 W/m² | - |
| 1778171705 | 17.22° C | 49% | 1014 hPa | 0 mm | - | 862 W/m² | - |
| 1778171405 | 16.67° C | 49% | 1014 hPa | 0 mm | - | 861 W/m² | - |
| 1778171104 | 16.67° C | 50% | 1014.1 hPa | 0 mm | - | 858 W/m² | - |
| 1778170805 | 16.67° C | 48% | 1014.2 hPa | 0 mm | - | 842 W/m² | - |
| 1778170504 | 16.67° C | 50% | 1014.2 hPa | 0 mm | - | 783 W/m² | - |
| 1778170205 | 16.67° C | 50% | 1014.2 hPa | 0 mm | - | 802 W/m² | - |
| 1778169904 | 16.67° C | 51% | 1014.3 hPa | 0 mm | - | 788 W/m² | - |
* Rain latest hour (hover to see other rain measurements)
** Current wind speed in m/s (hover to see current wind gust speed)